Voltar ao catálogo

FENGYUN 1C DEB

AtivoPO
NORAD 31744·DEBRIS·🇨🇳 China

Lançado May 10, 1999 de Taiyuan Satellite Launch Center

Loading…

Próximas Passagens (próximas 24 horas)

TLE

AtualizadoSource: Space-Track

Época: Sep 13, 2026, 14:14 UTC

1 31744U 99025CET 26256.59367439  .00002728  00000-0  81609-3 0  9997
2 31744  99.3233  26.7604 0302794 347.1180  12.2380 14.20522035985129

Acompanhe FENGYUN 1C DEB em tempo real com AllMySat

Download on the App Store